Flag for Canada Weather past 2 weeks in Richmond, British Columbia, Canada

Now
41 °F

Clear.


Feels Like: 41 °F
Forecast: 42 / 47 °F
Wind: 2 mph from North

Location: Vancouver International Air-Port

Current Time: Jan 28, 2015 at 9:21:30 PM

Latest Report: Jan 28, 2015 at 9:00 PM


Visibility: 20 mi

Pressure: 30.40 "Hg

Humidity: 93%

Dew point: 39 °F

Location of RichmondLocation

Historic Weather in Richmond — Graph

°F

Richmond temperature yesterday

Maximum temperature yesterday: 52 °F (at 12:00 PM)
Minimum temperature yesterday: 43 °F (at 11:00 PM)
Average temperature yesterday: 47 °F

Past Weeks' High & Low Weather Summary

 TemperatureHumidityPressure
High57 °F (Jan 25, 1:00 PM)100% (Jan 13, 8:00 PM)30.48 "Hg (Jan 13, 8:00 PM)
Low28 °F (Jan 14, 3:00 AM)62% (Jan 16, 3:00 PM)29.46 "Hg (Jan 18, 1:00 AM)
Average44 °F92%30.16 "Hg
* Reported Jan 13 8:00 PM — Jan 28 8:00 PM, Richmond, Weather by CustomWeather, © 2014

Note: Actual official high and low records may vary slightly from our data, if they occured in-between our weather recording intervals... More about our weather records

Advertising

Richmond weather history for previous 24 hours

 ConditionsComfort  
Time TempWeatherWind HumidityBarometerVisibility
8:00 PM
Jan 28
39 °FClear.2 mph93%30.39 "Hg20 mi
7:00 PM39 °FClear.6 mph100%30.38 "Hg20 mi
6:00 PM39 °FClear.7 mph100%30.39 "Hg20 mi
5:00 PM43 °FPassing clouds.5 mph100%30.38 "Hg30 mi
4:00 PM46 °FPassing clouds.7 mph93%30.39 "Hg30 mi
3:00 PM48 °FPassing clouds.7 mph87%30.38 "Hg20 mi
2:00 PM50 °FPassing clouds.5 mph82%30.40 "Hg20 mi
1:00 PM46 °FPartly sunny.3 mph93%30.41 "Hg15 mi
12:00 PM46 °FBroken clouds.3 mph93%30.42 "Hg15 mi
11:00 AM46 °FPartly sunny.3 mph93%30.42 "Hg15 mi
10:00 AM46 °FLow clouds.2 mph93%30.41 "Hg15 mi
9:00 AM45 °FBroken clouds.5 mph93%30.40 "Hg15 mi
8:00 AM45 °FMostly cloudy.2 mph93%30.39 "Hg15 mi
7:00 AM43 °FMostly cloudy.3 mph93%30.37 "Hg15 mi
6:00 AM41 °FPartly cloudy.3 mph100%30.36 "Hg15 mi
5:00 AM41 °FPartly cloudy.2 mph93%30.35 "Hg15 mi
4:00 AM45 °FPartly cloudy.5 mph93%30.34 "Hg15 mi
3:00 AM43 °FPartly cloudy.6 mph93%30.32 "Hg15 mi
2:00 AM45 °FPassing clouds.3 mph93%30.30 "Hg15 mi
1:00 AM45 °FPartly cloudy.5 mph93%30.28 "Hg15 mi
12:00 AM43 °FPartly cloudy.5 mph100%30.27 "Hg15 mi
11:00 PM
Jan 27
43 °FPartly cloudy.3 mph100%30.25 "Hg15 mi
10:00 PM46 °FMostly cloudy.5 mph93%30.23 "Hg10 mi
9:00 PM46 °FMostly cloudy.8 mph93%30.20 "Hg10 mi
Weather by CustomWeather, © 2014

See weather overviewHow to use our weather pages